Probability
19 19 26 26 19 16 16 16 10 13 16 16 13 10 10 10 13 13 13 16 10 10 6 13 10 10 10 6 6 6 6 3 3 3 3 0 0 0 0 0 0 0 0
13 19 23 26 26 19 16 16 13 13 16 13 13 10 13 6 3 6 6 13 10 6 10 3 6 3 3 3 3 3 3 3 3 3 0 0 0 0 0 0 0 0 0
19 16 23 23 23 19 16 16 16 13 10 10 10 10 10 6 6 6 6 10 10 6 6 6 6 3 3 3 3 3 3 3 0 0 0 0 0 0 0 0 0 0 0
16 13 16 19 19 19 13 13 6 10 10 13 10 10 6 6 6 3 6 6 10 6 10 6 6 6 3 3 6 3 3 3 3 0 0 0 0 0 0 0 0 0 0
10 10 10 19 16 16 16 16 10 10 10 10 10 6 6 6 6 6 6 10 10 10 3 6 10 10 10 6 6 6 3 0 0 0 0 0 0 0 0 0 0 0 0
6 3 10 13 16 19 16 16 16 13 13 10 10 6 6 6 6 6 6 6 6 6 6 6 6 6 10 6 6 6 3 0 0 0 0 0 0 0 0 0 0 0 0
6 10 10 10 13 16 16 16 16 16 13 13 10 10 6 6 6 6 6 6 6 6 6 6 6 6 6 6 3 3 3 0 0 0 0 0 0 0 0 0 0 0 0
6 13 10 10 13 16 19 19 16 16 16 16 16 6 6 6 6 6 6 6 6 6 6 6 6 6 6 6 0 0 0 0 0 0 0 0 0 0 0 0 0 0 0
10 13 10 6 10 10 13 10 13 13 13 10 10 6 6 6 6 6 6 6 6 3 6 6 6 6 6 6 0 0 0 0 0 0 0 0 0 0 0 0 0 0 0
3 6 10 13 10 6 6 6 6 6 6 6 6 6 6 6 6 6 6 3 3 3 3 3 3 3 3 3 0 0 0 0 0 0 0 0 0 0 0 0 0 0 0
6 13 10 13 10 6 6 6 6 6 6 6 6 6 6 6 6 6 6 3 3 3 3 3 3 3 3 3 0 0 0 0 0 0 0 0 0 0 0 0 0 0 0
6 13 13 6 6 6 6 6 6 6 6 6 6 6 6 6 3 3 3 3 3 3 3 3 3 3 3 0 0 0 0 0 0 0 0 0 0 0 0 0 0 0 0
10 10 13 6 6 3 3 3 3 3 3 6 3 6 3 3 3 3 0 0 0 3 3 3 3 3 3 0 0 0 0 0 0 0 0 0 0 0 0 0 0 0 0
10 6 6 6 3 3 3 3 3 3 3 3 3 3 3 3 3 3 0 0 0 0 3 3 3 3 3 3 0 0 0 0 0 0 0 0 0 0 0 0 0 0 0
6 6 6 0 3 3 3 3 3 3 3 3 3 3 3 0 0 0 0 0 0 0 0 3 3 3 3 3 0 0 0 0 0 0 0 0 0 0 0 0 0 0 0
6 6 3 0 0 3 3 3 3 3 3 3 3 3 0 0 0 0 0 0 0 0 0 3 3 3 3 0 0 0 0 0 0 0 0 0 0 0 0 0 0 0 0
6 6 3 0 0 3 3 3 3 3 3 3 0 0 0 0 0 0 0 0 0 0 0 0 0 3 0 0 0 0 0 0 0 0 0 0 0 0 0 0 0 0 0
6 6 6 6 0 3 3 3 3 3 0 0 0 0 0 0 0 0 0 0 0 0 0 0 0 0 0 0 0 0 0 0 0 0 0 0 0 0 0 0 0 0 0
3 6 6 6 0 0 3 0 0 0 0 0 0 0 0 0 0 0 0 0 0 0 0 0 0 0 0 0 0 0 0 0 0 0 0 0 0 0 0 0 0 0 0
3 3 6 6 6 0 0 0 0 0 0 0 0 0 0 0 0 0 0 0 0 0 0 0 0 0 0 0 0 0 0 0 0 0 0 0 0 0 0 0 0 0 0
6 6 3 6 6 0 0 0 0 0 0 0 0 0 0 0 0 0 0 0 0 0 0 0 0 0 0 0 0 0 0 0 0 0 0 0 0 0 0 0 0 0 0
6 3 3 6 3 0 0 0 0 0 0 0 0 0 0 0 0 0 0 0 0 0 0 0 0 0 0 0 0 0 0 0 0 0 0 0 0 0 0 0 0 0 0
3 3 6 6 3 3 0 0 0 0 0 0 0 0 0 0 0 0 0 0 0 0 0 0 0 0 0 0 0 0 0 0 0 0 0 0 0 0 0 0 0 0 0
0 3 6 3 3 0 0 0 0 0 0 0 0 0 0 0 0 0 0 0 0 0 0 0 0 0 0 0 0 0 0 0 0 0 0 0 0 0 0 0 0 0 0
3 0 0 3 3 3 0 0 0 0 0 0 0 0 0 0 0 0 0 0 0 0 0 0 0 0 0 0 0 0 0 0 0 0 0 0 0 0 0 0 0 0 0
0 0 0 0 3 3 0 0 0 0 0 0 0 0 0 0 0 0 0 0 0 0 0 0 0 0 0 0 0 0 0 0 0 0 0 0 0 0 0 0 0 0 0
Height
5845 5844 5842 5840 5838 5837 5834 5832 5829 5827 5825 5822 5820 5817 5815 5813 5810 5808 5805 5803 5802 5802 5802 5801 5800 5800 5799 5798 5797 5797 5796 5795 5794 5793 5792 5791 5790 5789 5788 5788 5788 5788 5787
5843 5842 5839 5837 5835 5833 5831 5829 5826 5823 5821 5818 5816 5813 5811 5809 5806 5804 5802 5800 5798 5797 5797 5796 5795 5795 5794 5793 5792 5791 5790 5789 5788 5787 5786 5785 5785 5783 5782 5781 5781 5781 5780
5841 5839 5836 5834 5832 5830 5828 5826 5823 5820 5818 5815 5812 5809 5807 5804 5802 5800 5798 5796 5795 5794 5792 5791 5790 5789 5789 5788 5787 5786 5785 5784 5782 5781 5780 5778 5778 5777 5776 5775 5774 5774 5773
5838 5836 5834 5831 5829 5827 5825 5823 5821 5818 5815 5812 5809 5806 5804 5801 5799 5796 5795 5793 5791 5790 5789 5788 5786 5785 5784 5783 5782 5781 5780 5778 5776 5774 5773 5772 5771 5770 5769 5769 5768 5767 5766
5835 5833 5831 5829 5827 5824 5822 5820 5818 5815 5812 5809 5806 5803 5801 5798 5795 5793 5791 5789 5788 5786 5785 5783 5782 5781 5780 5779 5777 5776 5774 5773 5771 5769 5767 5766 5764 5763 5762 5762 5761 5760 5759
5832 5830 5829 5827 5825 5822 5819 5817 5815 5813 5810 5807 5804 5801 5798 5795 5792 5790 5788 5786 5784 5782 5780 5779 5778 5777 5776 5775 5773 5771 5769 5767 5765 5763 5762 5760 5758 5757 5755 5754 5754 5753 5752
5830 5828 5826 5824 5822 5820 5817 5815 5813 5810 5807 5804 5801 5799 5795 5792 5790 5787 5785 5782 5781 5779 5777 5775 5774 5773 5772 5770 5769 5767 5764 5762 5760 5758 5755 5753 5752 5750 5748 5748 5747 5746 5745
5827 5825 5824 5822 5820 5818 5815 5813 5810 5807 5804 5801 5798 5796 5793 5790 5787 5785 5782 5780 5778 5775 5773 5772 5770 5769 5767 5766 5764 5762 5760 5757 5754 5752 5750 5747 5745 5743 5741 5740 5739 5738 5737
5825 5823 5821 5820 5818 5815 5813 5810 5808 5805 5802 5798 5795 5792 5790 5787 5784 5782 5779 5777 5774 5772 5770 5768 5766 5765 5763 5762 5760 5758 5755 5752 5749 5746 5744 5741 5739 5736 5735 5733 5731 5731 5730
5823 5821 5819 5817 5815 5813 5811 5808 5805 5802 5799 5796 5792 5789 5787 5784 5781 5779 5776 5773 5771 5769 5767 5765 5763 5761 5759 5757 5755 5752 5749 5747 5744 5741 5738 5735 5732 5730 5728 5725 5724 5722 5722
5820 5819 5817 5814 5812 5810 5808 5805 5803 5800 5797 5793 5790 5787 5784 5781 5778 5775 5773 5770 5768 5765 5763 5761 5759 5756 5754 5752 5749 5747 5744 5741 5738 5735 5732 5729 5726 5724 5721 5719 5717 5715 5714
5816 5815 5813 5812 5810 5808 5805 5803 5800 5798 5795 5791 5788 5784 5781 5778 5775 5772 5769 5766 5764 5762 5759 5757 5755 5752 5749 5747 5744 5742 5739 5736 5733 5729 5727 5724 5721 5718 5715 5712 5710 5708 5707
5813 5811 5810 5808 5806 5804 5802 5800 5798 5795 5792 5789 5785 5782 5778 5774 5771 5768 5765 5762 5760 5758 5755 5753 5750 5747 5745 5742 5739 5736 5734 5730 5727 5724 5721 5718 5715 5712 5709 5706 5703 5701 5700
5809 5808 5806 5805 5803 5801 5799 5797 5794 5792 5789 5785 5782 5778 5774 5771 5767 5764 5761 5758 5756 5753 5751 5749 5746 5743 5740 5737 5734 5731 5728 5725 5722 5719 5716 5712 5709 5706 5703 5700 5697 5695 5693
5805 5804 5802 5801 5799 5797 5795 5793 5791 5788 5785 5782 5778 5775 5771 5767 5763 5760 5757 5754 5752 5749 5747 5744 5741 5738 5735 5733 5729 5726 5723 5720 5717 5713 5710 5707 5704 5701 5698 5695 5692 5688 5686
5801 5800 5798 5797 5795 5793 5791 5789 5786 5783 5780 5777 5774 5770 5766 5763 5759 5756 5753 5750 5747 5745 5742 5739 5737 5734 5731 5727 5724 5721 5718 5714 5711 5708 5705 5702 5698 5695 5692 5689 5686 5683 5680
5796 5795 5793 5792 5791 5789 5787 5784 5782 5779 5776 5773 5770 5766 5762 5758 5755 5752 5749 5746 5743 5741 5738 5735 5732 5729 5726 5723 5719 5716 5712 5709 5706 5702 5699 5696 5693 5690 5687 5684 5681 5677 5675
5791 5790 5788 5787 5786 5784 5782 5779 5777 5774 5772 5768 5765 5762 5758 5755 5751 5748 5745 5742 5739 5736 5734 5730 5727 5724 5721 5718 5715 5711 5708 5704 5701 5698 5694 5691 5688 5684 5681 5679 5675 5672 5670
5786 5784 5783 5782 5780 5779 5777 5774 5772 5770 5767 5764 5761 5758 5754 5751 5748 5744 5741 5738 5735 5732 5729 5726 5723 5720 5717 5714 5710 5707 5703 5700 5697 5693 5690 5686 5683 5680 5677 5674 5671 5668 5665
5781 5780 5778 5776 5775 5773 5771 5769 5767 5765 5762 5759 5756 5753 5750 5747 5744 5740 5737 5734 5731 5728 5725 5722 5718 5715 5712 5709 5706 5702 5699 5696 5692 5689 5685 5682 5679 5676 5673 5670 5667 5664 5662
5776 5775 5773 5771 5770 5768 5766 5764 5762 5760 5757 5755 5752 5749 5746 5743 5740 5736 5733 5730 5726 5723 5720 5717 5714 5711 5708 5704 5701 5698 5695 5691 5688 5685 5681 5678 5675 5672 5669 5666 5664 5661 5658
5771 5769 5768 5766 5765 5763 5761 5759 5757 5755 5752 5750 5747 5744 5741 5739 5735 5732 5729 5725 5722 5719 5716 5713 5710 5707 5703 5700 5697 5694 5690 5687 5684 5681 5677 5674 5671 5668 5665 5663 5660 5657 5654
5765 5764 5763 5761 5760 5758 5756 5754 5752 5750 5747 5745 5743 5740 5737 5734 5731 5728 5724 5721 5718 5715 5712 5709 5706 5703 5699 5696 5693 5690 5686 5683 5680 5677 5674 5671 5668 5665 5662 5659 5656 5653 5650
5760 5758 5757 5755 5754 5752 5751 5749 5746 5744 5742 5740 5738 5735 5733 5730 5727 5724 5721 5718 5715 5712 5708 5705 5702 5699 5695 5692 5689 5686 5682 5679 5676 5673 5670 5667 5664 5661 5658 5655 5652 5649 5646
5754 5752 5751 5750 5748 5747 5745 5743 5741 5739 5737 5735 5733 5731 5728 5726 5723 5720 5717 5714 5711 5707 5704 5701 5698 5695 5692 5689 5685 5682 5679 5675 5672 5669 5666 5663 5660 5657 5654 5651 5648 5645 5642
5747 5746 5745 5744 5742 5741 5739 5737 5736 5734 5732 5731 5728 5726 5724 5721 5718 5715 5712 5709 5706 5703 5700 5697 5694 5691 5688 5685 5682 5678 5675 5672 5669 5665 5662 5659 5656 5653 5650 5647 5644 5641 5638
Wind_Speed
14 13 13 14 15 15 15 15 15 15 16 17 18 17 16 16 16 16 15 14 14 15 16 17 17 18 19 19 19 19 19 19 19 20 21 21 21 21 21 21 22 23 23
13 14 13 14 15 15 16 16 16 15 15 15 16 16 15 15 16 15 14 13 13 14 16 18 18 18 19 19 18 18 19 20 20 20 21 21 21 22 22 22 22 23 24
13 14 14 14 15 15 15 15 16 17 16 16 16 16 16 15 15 14 14 13 13 14 15 17 16 17 18 17 17 18 19 19 20 20 21 21 21 21 22 23 23 24 24
13 13 13 14 14 15 15 15 15 15 16 16 16 16 16 16 15 14 13 13 13 14 15 15 16 16 17 17 17 18 18 19 19 19 19 20 21 22 22 22 24 25 26
13 13 13 14 14 14 15 14 15 15 15 15 16 15 15 14 14 13 13 13 14 14 15 15 14 14 15 16 17 17 18 19 19 19 20 20 21 22 23 23 24 25 26
13 13 13 13 14 13 13 13 14 14 14 15 15 14 15 14 14 13 13 13 13 14 14 14 13 13 14 15 16 18 19 20 20 20 21 22 22 23 23 24 24 24 25
13 13 13 13 13 12 12 13 14 15 15 15 15 15 14 14 14 13 13 14 14 13 13 12 13 13 14 15 16 18 19 19 20 20 21 22 23 24 24 24 24 24 25
12 12 12 13 12 12 12 14 14 15 16 16 16 15 14 14 13 13 13 13 13 13 13 13 13 14 14 15 16 18 18 19 20 20 21 22 22 23 23 24 24 24 24
12 12 12 12 11 12 13 14 14 16 16 16 16 16 14 13 13 13 14 14 14 14 14 13 14 15 16 17 17 18 19 19 19 20 20 21 21 22 23 23 24 24 24
12 12 12 12 12 13 13 14 14 15 16 16 16 16 15 14 13 14 14 15 15 14 14 14 15 16 17 18 19 19 20 20 20 20 21 21 21 22 22 23 23 23 23
13 13 13 12 13 14 14 14 14 15 16 16 16 16 15 15 15 15 15 15 15 15 14 16 17 18 18 19 20 20 20 20 21 22 22 22 22 22 22 23 23 23 23
13 14 14 14 14 15 15 14 14 15 15 16 16 16 17 16 16 16 15 15 15 15 15 16 17 18 19 20 20 20 20 20 21 21 21 22 22 22 22 22 23 23 24
14 14 14 14 15 15 15 15 15 15 15 16 17 17 17 17 16 16 16 16 16 16 16 16 17 18 18 19 20 20 20 21 21 22 22 22 22 21 21 22 22 22 23
15 14 14 14 15 15 15 15 16 16 16 17 17 18 18 17 16 16 16 16 16 17 17 17 17 18 18 19 19 20 20 20 20 21 21 21 21 21 22 22 22 22 22
15 15 15 15 16 15 15 15 16 17 17 18 18 19 19 18 17 17 17 17 17 17 17 18 18 18 19 19 20 21 21 20 20 20 20 20 21 21 21 21 21 21 21
16 17 16 16 16 16 16 16 17 17 18 18 19 20 20 19 18 18 18 18 18 18 18 18 19 19 19 20 20 21 20 20 20 21 21 21 21 21 21 21 21 20 20
17 18 17 16 16 17 17 17 17 18 18 19 20 20 19 19 19 19 18 18 17 17 18 19 19 19 19 19 20 20 21 20 20 21 21 21 21 21 20 20 20 20 18
19 19 18 17 17 18 18 18 18 18 19 19 19 19 19 19 19 18 18 17 17 18 18 19 18 19 19 19 20 20 20 20 20 20 20 20 19 19 19 18 18 18 17
19 18 18 19 18 18 18 19 19 19 19 19 19 20 19 19 18 18 18 18 18 18 19 19 19 19 19 19 19 19 19 19 20 20 20 19 19 19 18 17 17 16 16
18 18 18 19 19 19 18 18 19 19 18 18 19 19 19 19 19 18 18 18 18 18 19 19 19 19 19 19 19 19 19 19 19 20 19 19 18 18 18 17 16 15 15
18 18 18 18 18 18 18 19 19 19 19 19 19 19 19 19 19 19 19 19 19 19 19 19 19 19 19 19 19 18 18 19 19 19 18 18 19 18 18 16 16 15 15
18 18 18 18 18 18 19 19 19 20 20 19 19 19 18 19 19 20 19 19 19 19 19 19 18 18 19 19 18 18 18 19 19 18 18 18 18 18 17 16 16 16 15
17 17 18 19 19 19 19 19 19 19 19 19 19 18 19 19 19 19 19 19 19 19 19 18 18 19 19 18 18 18 19 19 19 18 18 18 18 17 17 16 16 16 17
18 18 19 19 20 20 20 20 19 19 19 19 19 19 20 20 19 19 19 19 19 19 19 18 18 19 18 19 19 19 19 19 18 18 18 18 18 18 17 17 17 17 17
20 20 20 19 19 20 20 20 19 19 19 19 19 19 20 20 20 20 20 20 20 19 18 18 18 18 19 19 19 18 18 18 18 18 18 19 19 18 18 18 17 17 17
21 21 21 20 20 20 20 20 19 19 19 20 20 21 21 22 21 21 21 20 20 19 18 18 19 19 19 19 19 18 17 18 17 17 17 17 18 18 17 17 17 17 17
Wind_Direction
314 313 309 310 308 306 307 308 309 306 305 305 307 304 303 303 304 303 300 295 286 278 274 276 277 277 279 278 277 277 276 276 276 275 275 275 274 273 271 269 268 266 266
312 314 313 311 312 311 312 312 312 313 315 311 310 309 306 304 306 306 301 298 291 282 277 279 280 279 279 278 277 278 278 278 279 278 276 275 273 271 270 270 267 265 266
313 316 319 314 314 312 310 314 317 317 318 318 318 315 310 307 308 305 301 301 297 291 287 288 285 281 280 278 279 281 280 280 281 281 279 277 277 274 271 270 268 267 268
313 317 322 320 317 316 313 315 316 316 318 319 320 320 315 312 310 304 302 300 298 293 289 288 286 283 282 283 283 283 282 282 284 285 283 283 281 278 275 273 271 270 269
315 320 324 323 320 318 315 315 316 315 317 320 319 319 319 318 316 311 307 302 298 293 290 288 285 284 285 288 287 288 287 286 287 286 285 286 284 283 280 276 274 272 271
325 330 326 324 321 319 318 321 319 318 318 320 324 323 320 318 317 316 312 308 305 303 298 292 288 287 287 290 291 291 292 291 290 288 287 287 286 285 282 279 277 275 274
323 329 328 324 323 321 320 320 321 320 321 321 322 322 319 317 317 316 312 309 307 303 297 296 295 294 294 295 297 298 297 295 294 293 292 289 288 285 282 281 279 277 277
322 324 329 330 327 324 324 323 322 322 322 322 321 320 316 314 314 316 314 312 310 305 300 299 300 299 301 301 302 303 302 300 298 297 294 292 289 286 283 282 280 279 278
326 325 326 328 328 326 328 329 327 324 324 325 325 323 320 317 316 317 319 316 311 306 302 302 302 301 301 301 303 304 305 306 303 301 298 295 292 289 287 284 283 282 278
326 322 322 322 324 327 328 328 329 329 329 328 327 326 320 315 312 315 317 315 312 307 301 301 305 305 305 304 304 305 305 305 305 304 303 301 297 292 290 288 286 284 280
316 316 316 317 321 323 325 326 329 331 333 333 332 330 328 321 315 314 312 311 310 306 302 301 302 305 306 304 302 304 305 306 305 304 303 303 300 296 292 287 285 283 280
311 311 312 313 317 320 321 323 328 330 331 332 332 332 330 325 318 313 310 309 310 308 305 304 304 305 306 307 307 307 306 307 307 304 303 303 301 297 294 291 286 283 281
306 309 309 312 315 317 318 319 322 326 329 330 330 329 328 324 320 315 311 308 306 307 306 307 307 308 308 308 309 310 309 308 307 306 305 303 301 299 297 295 291 287 284
298 301 305 308 311 312 312 313 316 321 324 326 327 327 326 323 320 316 312 308 306 306 306 307 309 309 308 309 310 311 309 309 309 310 309 308 306 303 301 298 295 292 288
293 296 301 305 304 307 309 310 314 316 318 322 324 325 324 322 320 318 315 312 308 307 306 307 308 308 309 310 311 312 311 308 308 309 310 310 310 307 303 301 299 296 292
296 295 297 301 301 304 306 309 310 313 316 318 320 321 322 321 319 318 315 312 308 307 307 308 309 310 311 311 311 311 312 311 309 308 307 307 309 308 306 304 302 300 296
294 297 298 301 301 300 301 304 307 311 314 317 318 319 320 320 320 320 318 315 313 312 311 310 311 312 313 313 312 312 313 313 312 310 309 308 308 308 307 307 305 302 298
295 296 295 297 298 298 299 301 305 309 313 316 318 319 318 319 319 319 318 316 314 315 315 315 314 314 314 315 315 315 316 317 318 317 314 314 313 313 311 309 307 305 300
292 290 291 295 296 299 300 300 305 308 312 315 316 317 317 317 317 318 318 317 316 316 315 315 315 315 316 316 315 317 317 317 318 318 319 317 316 315 315 314 312 309 306
290 292 293 294 296 298 300 301 304 307 310 313 314 315 316 317 317 317 318 320 319 317 317 316 316 316 316 317 318 319 319 318 319 320 319 319 317 315 315 314 314 313 310
289 292 292 294 295 295 297 300 303 305 306 308 311 313 315 317 319 319 319 319 318 317 317 317 317 317 318 319 318 319 319 320 321 320 320 319 319 318 315 314 316 317 315
287 289 292 293 295 296 298 298 300 302 303 306 309 312 315 317 320 321 321 320 320 319 320 319 318 319 320 320 319 319 320 322 321 320 320 320 320 319 319 319 320 319 318
286 287 289 291 294 296 297 298 299 301 303 305 309 313 315 317 318 320 322 321 321 322 321 319 318 317 318 319 320 320 321 322 321 321 321 321 321 320 319 319 320 321 321
287 288 288 291 294 295 295 296 299 301 302 304 306 310 313 315 317 319 319 319 318 318 318 317 317 318 319 320 320 320 320 321 321 322 322 322 321 320 319 318 317 319 320
287 288 287 289 292 293 293 294 295 297 299 301 304 307 309 310 312 313 314 313 314 313 314 316 317 319 320 322 323 321 322 323 322 321 321 321 320 320 320 318 317 318 318
282 283 284 283 286 289 291 291 293 295 298 299 301 304 306 306 307 308 309 311 310 310 311 312 314 316 318 320 323 323 322 324 324 322 322 321 320 320 320 320 319 318 318